"datetime","temp","dp","rain_mm","uv","solar","mb","wind_mph","gust_mph","windchill","rh"
"2016-09-25 00:00:00",17.9,14.0,0.0,0.0,0,1009.9,0,2,"",78
"2016-09-25 00:01:00",17.8,13.9,0.0,0.0,0,1009.9,2,3,"",78
"2016-09-25 00:02:00",17.8,14.1,0.0,0.0,0,1009.9,1,3,"",79
"2016-09-25 00:03:00",17.8,14.1,0.0,0.0,0,1009.8,4,8,"",79
"2016-09-25 00:04:00",17.8,14.1,0.0,0.0,0,1009.8,4,9,"",79
"2016-09-25 00:05:00",17.8,13.9,0.0,0.0,0,1009.8,2,6,"",78
"2016-09-25 00:06:00",17.9,14.0,0.0,0.0,0,1009.8,4,7,"",78
"2016-09-25 00:07:00",17.9,14.0,0.0,0.0,0,1009.8,1,2,"",78
"2016-09-25 00:08:00",17.9,14.2,0.0,0.0,0,1009.8,1,2,"",79
"2016-09-25 00:09:00",17.9,14.0,0.0,0.0,0,1009.8,2,5,"",78
"2016-09-25 00:10:00",17.9,14.2,0.0,0.0,0,1009.8,2,2,"",79
"2016-09-25 00:11:00",17.9,14.2,0.0,0.0,0,1009.8,2,6,"",79
"2016-09-25 00:12:00",17.8,14.1,0.0,0.0,0,1009.8,2,3,"",79
"2016-09-25 00:13:00",17.8,14.1,0.0,0.0,0,1009.8,1,2,"",79
"2016-09-25 00:14:00",17.8,14.1,0.0,0.0,0,1009.9,2,6,"",79
"2016-09-25 00:15:00",17.8,14.1,0.0,0.0,0,1009.9,2,3,"",79
"2016-09-25 00:16:00",17.7,14.2,0.0,0.0,0,1009.9,0,1,"",80
"2016-09-25 00:17:00",17.7,14.2,0.0,0.0,0,1009.9,0,2,"",80
"2016-09-25 00:18:00",17.6,14.1,0.0,0.0,0,1009.9,0,1,"",80
"2016-09-25 00:19:00",17.6,14.1,0.0,0.0,0,1009.8,2,3,"",80
"2016-09-25 00:20:00",17.6,14.1,0.0,0.0,0,1009.8,2,4,"",80
"2016-09-25 00:21:00",17.6,14.1,0.0,0.0,0,1009.8,1,3,"",80
"2016-09-25 00:22:00",17.6,14.3,0.0,0.0,0,1009.8,1,2,"",81
"2016-09-25 00:23:00",17.4,14.1,0.0,0.0,0,1009.8,1,3,"",81
"2016-09-25 00:24:00",17.4,14.1,0.0,0.0,0,1009.7,1,1,"",81
"2016-09-25 00:25:00",17.4,14.1,0.0,0.0,0,1009.8,1,2,"",81
"2016-09-25 00:26:00",17.4,14.1,0.0,0.0,0,1009.7,1,2,"",81
"2016-09-25 00:27:00",17.4,14.1,0.0,0.0,0,1009.7,2,4,"",81
"2016-09-25 00:28:00",17.4,14.1,0.0,0.0,0,1009.6,1,3,"",81
"2016-09-25 00:29:00",17.3,14.2,0.0,0.0,0,1009.6,1,2,"",82
"2016-09-25 00:30:00",17.3,14.2,0.0,0.0,0,1009.6,2,3,"",82
"2016-09-25 00:31:00",17.3,14.2,0.0,0.0,0,1009.7,0,1,"",82
"2016-09-25 00:32:00",17.3,14.2,0.0,0.0,0,1009.7,1,2,"",82
"2016-09-25 00:33:00",17.2,14.1,0.0,0.0,0,1009.6,4,7,"",82
"2016-09-25 00:34:00",17.2,14.3,0.0,0.0,0,1009.6,0,2,"",83
"2016-09-25 00:35:00",17.3,14.2,0.0,0.0,0,1009.6,1,1,"",82
"2016-09-25 00:36:00",17.3,14.2,0.0,0.0,0,1009.6,0,1,"",82
"2016-09-25 00:37:00",17.3,14.2,0.0,0.0,0,1009.6,3,7,"",82
"2016-09-25 00:38:00",17.3,14.2,0.0,0.0,0,1009.5,2,5,"",82
"2016-09-25 00:39:00",17.3,14.2,0.0,0.0,0,1009.5,1,4,"",82
"2016-09-25 00:40:00",17.3,14.2,0.0,0.0,0,1009.6,1,5,"",82
"2016-09-25 00:41:00",17.2,14.1,0.0,0.0,0,1009.6,2,5,"",82
"2016-09-25 00:42:00",17.2,14.3,0.0,0.0,0,1009.5,0,1,"",83
"2016-09-25 00:43:00",17.1,14.2,0.0,0.0,0,1009.5,1,4,"",83
"2016-09-25 00:44:00",17.2,14.3,0.0,0.0,0,1009.5,2,6,"",83
"2016-09-25 00:45:00",17.1,14.2,0.0,0.0,0,1009.5,1,2,"",83
"2016-09-25 00:46:00",17.1,14.2,0.0,0.0,0,1009.5,2,3,"",83
"2016-09-25 00:47:00",17.2,14.3,0.0,0.0,0,1009.5,2,3,"",83
"2016-09-25 00:48:00",17.2,14.3,0.0,0.0,0,1009.5,4,10,"",83
"2016-09-25 00:49:00",17.3,14.4,0.0,0.0,0,1009.5,3,6,"",83
"2016-09-25 00:50:00",17.3,14.4,0.0,0.0,0,1009.4,3,11,"",83
"2016-09-25 00:51:00",17.4,14.5,0.0,0.0,0,1009.4,3,9,"",83
"2016-09-25 00:52:00",17.5,14.4,0.0,0.0,0,1009.5,1,2,"",82
"2016-09-25 00:53:00",17.6,14.5,0.0,0.0,0,1009.4,3,5,"",82
"2016-09-25 00:54:00",17.6,14.5,0.0,0.0,0,1009.3,4,9,"",82
"2016-09-25 00:55:00",17.6,14.5,0.0,0.0,0,1009.3,3,8,"",82
"2016-09-25 00:56:00",17.7,14.6,0.0,0.0,0,1009.3,1,1,"",82
"2016-09-25 00:57:00",17.7,14.6,0.0,0.0,0,1009.3,4,7,"",82
"2016-09-25 00:58:00",17.7,14.4,0.0,0.0,0,1009.4,4,7,"",81
"2016-09-25 00:59:00",17.7,14.4,0.0,0.0,0,1009.3,2,5,"",81
"2016-09-25 01:00:00",17.7,14.6,0.0,0.0,0,1009.3,3,6,"",82
"2016-09-25 01:01:00",17.8,14.7,0.0,0.0,0,1009.3,3,3,"",82
"2016-09-25 01:02:00",17.8,14.5,0.0,0.0,0,1009.3,2,4,"",81
"2016-09-25 01:03:00",17.8,14.5,0.0,0.0,0,1009.2,3,5,"",81
"2016-09-25 01:04:00",17.8,14.5,0.0,0.0,0,1009.2,0,1,"",81
"2016-09-25 01:05:00",17.7,14.4,0.0,0.0,0,1009.2,1,3,"",81
"2016-09-25 01:06:00",17.7,14.6,0.0,0.0,0,1009.2,3,5,"",82
"2016-09-25 01:07:00",17.7,14.4,0.0,0.0,0,1009.1,1,3,"",81
"2016-09-25 01:08:00",17.6,14.3,0.0,0.0,0,1009.1,1,3,"",81
"2016-09-25 01:09:00",17.6,14.5,0.0,0.0,0,1009.2,4,6,"",82
"2016-09-25 01:10:00",17.6,14.5,0.0,0.0,0,1009.2,3,4,"",82
"2016-09-25 01:11:00",17.7,14.6,0.0,0.0,0,1009.2,4,7,"",82
"2016-09-25 01:12:00",17.7,14.6,0.0,0.0,0,1009.1,2,6,"",82
"2016-09-25 01:13:00",17.8,14.7,0.0,0.0,0,1009.1,3,5,"",82
"2016-09-25 01:14:00",17.8,14.7,0.0,0.0,0,1009.1,2,4,"",82
"2016-09-25 01:15:00",17.8,14.5,0.0,0.0,0,1009.2,2,6,"",81
"2016-09-25 01:16:00",17.8,14.5,0.0,0.0,0,1009.1,5,10,"",81
"2016-09-25 01:17:00",17.8,14.7,0.0,0.0,0,1009.2,6,11,"",82
"2016-09-25 01:18:00",17.8,14.7,0.0,0.0,0,1009.1,3,5,"",82
"2016-09-25 01:19:00",17.8,14.7,0.0,0.0,0,1009.1,1,2,"",82
"2016-09-25 01:20:00",17.8,14.7,0.0,0.0,0,1009.1,3,5,"",82
"2016-09-25 01:21:00",17.8,14.7,0.0,0.0,0,1009.1,1,2,"",82
"2016-09-25 01:22:00",17.8,14.7,0.0,0.0,0,1009.0,2,3,"",82
"2016-09-25 01:23:00",17.8,14.7,0.0,0.0,0,1009.1,3,4,"",82
"2016-09-25 01:24:00",17.8,14.7,0.0,0.0,0,1009.0,4,10,"",82
"2016-09-25 01:25:00",17.8,14.7,0.0,0.0,0,1009.1,2,3,"",82
"2016-09-25 01:26:00",17.8,14.7,0.0,0.0,0,1009.1,3,6,"",82
"2016-09-25 01:27:00",17.8,14.7,0.0,0.0,0,1009.0,3,5,"",82
"2016-09-25 01:28:00",17.8,14.7,0.0,0.0,0,1009.0,4,7,"",82
"2016-09-25 01:29:00",17.8,14.7,0.0,0.0,0,1009.0,4,9,"",82
"2016-09-25 01:30:00",17.9,14.8,0.0,0.0,0,1008.9,1,3,"",82
"2016-09-25 01:31:00",17.9,14.8,0.0,0.0,0,1008.9,3,5,"",82
"2016-09-25 01:32:00",17.9,14.8,0.0,0.0,0,1008.8,2,5,"",82
"2016-09-25 01:33:00",17.8,14.7,0.0,0.0,0,1008.9,2,5,"",82
"2016-09-25 01:34:00",17.8,14.7,0.0,0.0,0,1008.9,2,3,"",82
"2016-09-25 01:35:00",17.8,14.7,0.0,0.0,0,1008.9,1,2,"",82
"2016-09-25 01:36:00",17.7,14.6,0.0,0.0,0,1008.9,2,3,"",82
"2016-09-25 01:37:00",17.6,14.7,0.0,0.0,0,1008.9,1,3,"",83
"2016-09-25 01:38:00",17.5,14.6,0.0,0.0,0,1008.9,3,6,"",83
"2016-09-25 01:39:00",17.5,14.8,0.0,0.0,0,1008.9,3,6,"",84
"2016-09-25 01:40:00",17.5,14.6,0.0,0.0,0,1008.9,1,4,"",83
"2016-09-25 01:41:00",17.5,14.6,0.0,0.0,0,1008.9,2,4,"",83
"2016-09-25 01:42:00",17.4,14.5,0.0,0.0,0,1009.0,2,5,"",83
"2016-09-25 01:43:00",17.4,14.5,0.0,0.0,0,1009.0,1,2,"",83
"2016-09-25 01:44:00",17.3,14.6,0.0,0.0,0,1009.0,1,2,"",84
"2016-09-25 01:45:00",17.3,14.6,0.0,0.0,0,1009.0,2,2,"",84
"2016-09-25 01:46:00",17.3,14.6,0.0,0.0,0,1008.9,1,2,"",84
"2016-09-25 01:47:00",17.3,14.6,0.0,0.0,0,1008.9,1,2,"",84
"2016-09-25 01:48:00",17.2,14.7,0.0,0.0,0,1008.9,1,2,"",85
"2016-09-25 01:49:00",17.1,14.6,0.0,0.0,0,1008.9,1,3,"",85
"2016-09-25 01:50:00",17.1,14.6,0.0,0.0,0,1008.9,2,4,"",85
"2016-09-25 01:51:00",17.1,14.6,0.0,0.0,0,1008.9,3,7,"",85
"2016-09-25 01:52:00",17.2,14.7,0.0,0.0,0,1008.9,1,4,"",85
"2016-09-25 01:53:00",17.2,14.7,0.0,0.0,0,1008.9,2,3,"",85
"2016-09-25 01:54:00",17.2,14.7,0.0,0.0,0,1008.9,1,3,"",85
"2016-09-25 01:55:00",17.2,14.7,0.0,0.0,0,1009.0,1,3,"",85
"2016-09-25 01:56:00",17.2,14.7,0.0,0.0,0,1009.0,1,2,"",85
"2016-09-25 01:57:00",17.2,14.7,0.0,0.0,0,1009.0,2,7,"",85
"2016-09-25 01:58:00",17.2,14.7,0.0,0.0,0,1008.9,4,6,"",85
"2016-09-25 01:59:00",17.2,14.7,0.0,0.0,0,1008.9,3,6,"",85
"2016-09-25 02:00:00",17.2,14.7,0.0,0.0,0,1008.9,3,5,"",85
"2016-09-25 02:01:00",17.3,14.8,0.0,0.0,0,1008.9,1,2,"",85
"2016-09-25 02:02:00",17.2,14.7,0.0,0.0,0,1008.9,0,1,"",85
"2016-09-25 02:03:00",17.2,14.7,0.0,0.0,0,1008.9,3,6,"",85
"2016-09-25 02:04:00",17.3,14.8,0.0,0.0,0,1008.8,3,5,"",85
"2016-09-25 02:05:00",17.3,14.8,0.0,0.0,0,1008.9,2,4,"",85
"2016-09-25 02:06:00",17.3,14.8,0.0,0.0,0,1008.9,1,2,"",85
"2016-09-25 02:07:00",17.3,14.8,0.0,0.0,0,1008.9,2,5,"",85
"2016-09-25 02:08:00",17.3,14.8,0.0,0.0,0,1008.9,2,7,"",85
"2016-09-25 02:09:00",17.2,14.7,0.0,0.0,0,1008.9,2,5,"",85
"2016-09-25 02:10:00",17.2,14.7,0.0,0.0,0,1008.9,1,3,"",85
"2016-09-25 02:11:00",17.2,14.7,0.0,0.0,0,1008.9,1,2,"",85
"2016-09-25 02:12:00",17.1,14.7,0.0,0.0,0,1008.9,1,2,"",86
"2016-09-25 02:13:00",17.0,14.6,0.0,0.0,0,1008.9,2,8,"",86
"2016-09-25 02:14:00",16.9,14.5,0.0,0.0,0,1008.9,3,9,"",86
"2016-09-25 02:15:00",16.9,14.5,0.0,0.0,0,1008.9,2,2,"",86
"2016-09-25 02:16:00",16.8,14.6,0.0,0.0,0,1008.9,2,3,"",87
"2016-09-25 02:17:00",16.8,14.6,0.0,0.0,0,1008.8,2,4,"",87
"2016-09-25 02:18:00",16.8,14.6,0.0,0.0,0,1008.9,2,3,"",87
"2016-09-25 02:19:00",16.8,14.8,0.0,0.0,0,1008.9,2,5,"",88
"2016-09-25 02:20:00",16.8,14.8,0.0,0.0,0,1008.9,2,5,"",88
"2016-09-25 02:21:00",16.8,14.8,0.0,0.0,0,1008.9,2,3,"",88
"2016-09-25 02:22:00",16.8,14.8,0.0,0.0,0,1008.8,4,7,"",88
"2016-09-25 02:23:00",16.9,14.9,0.0,0.0,0,1008.8,3,5,"",88
"2016-09-25 02:24:00",16.9,14.9,0.0,0.0,0,1008.8,4,7,"",88
"2016-09-25 02:25:00",17.1,14.9,0.0,0.0,0,1008.8,2,3,"",87
"2016-09-25 02:26:00",17.1,14.9,0.0,0.0,0,1008.8,2,3,"",87
"2016-09-25 02:27:00",17.1,14.9,0.0,0.0,0,1008.7,2,2,"",87
"2016-09-25 02:28:00",17.1,14.9,0.0,0.0,0,1008.7,2,3,"",87
"2016-09-25 02:29:00",17.1,14.9,0.0,0.0,0,1008.6,2,4,"",87
"2016-09-25 02:30:00",17.1,14.9,0.0,0.0,0,1008.7,3,6,"",87
"2016-09-25 02:31:00",17.1,14.9,0.0,0.0,0,1008.6,3,5,"",87
"2016-09-25 02:32:00",17.1,14.9,0.0,0.0,0,1008.6,1,3,"",87
"2016-09-25 02:33:00",17.1,14.9,0.0,0.0,0,1008.6,2,5,"",87
"2016-09-25 02:34:00",17.0,14.8,0.0,0.0,0,1008.7,2,6,"",87
"2016-09-25 02:35:00",17.0,14.8,0.0,0.0,0,1008.7,3,5,"",87
"2016-09-25 02:36:00",17.0,14.8,0.0,0.0,0,1008.8,3,5,"",87
"2016-09-25 02:37:00",16.9,14.7,0.0,0.0,0,1008.7,3,6,"",87
"2016-09-25 02:38:00",16.9,14.9,0.0,0.0,0,1008.7,4,9,"",88
"2016-09-25 02:39:00",16.9,14.9,0.0,0.0,0,1008.6,3,5,"",88
"2016-09-25 02:40:00",16.9,14.9,0.0,0.0,0,1008.6,3,4,"",88
"2016-09-25 02:41:00",16.9,14.9,0.0,0.0,0,1008.6,1,2,"",88
"2016-09-25 02:42:00",16.9,14.9,0.0,0.0,0,1008.7,1,2,"",88
"2016-09-25 02:43:00",16.9,14.9,0.0,0.0,0,1008.7,2,3,"",88
"2016-09-25 02:44:00",16.9,14.9,0.0,0.0,0,1008.7,3,6,"",88
"2016-09-25 02:45:00",16.9,14.9,0.0,0.0,0,1008.7,2,3,"",88
"2016-09-25 02:46:00",16.9,14.9,0.0,0.0,0,1008.7,1,3,"",88
"2016-09-25 02:47:00",16.9,14.9,0.0,0.0,0,1008.7,1,2,"",88
"2016-09-25 02:48:00",16.9,14.9,0.0,0.0,0,1008.7,4,9,"",88
"2016-09-25 02:49:00",16.9,14.9,0.0,0.0,0,1008.6,2,4,"",88
"2016-09-25 02:50:00",16.8,14.8,0.0,0.0,0,1008.6,1,3,"",88
"2016-09-25 02:51:00",16.8,15.0,0.0,0.0,0,1008.6,3,7,"",89
"2016-09-25 02:52:00",16.8,14.8,0.0,0.0,0,1008.6,3,7,"",88
"2016-09-25 02:53:00",16.7,14.9,0.0,0.0,0,1008.6,2,3,"",89
"2016-09-25 02:54:00",16.8,15.0,0.0,0.0,0,1008.6,1,2,"",89
"2016-09-25 02:55:00",16.8,15.0,0.0,0.0,0,1008.6,3,9,"",89
"2016-09-25 02:56:00",16.8,15.0,0.0,0.0,0,1008.6,2,3,"",89
"2016-09-25 02:57:00",16.8,15.0,0.0,0.0,0,1008.6,3,5,"",89
"2016-09-25 02:58:00",16.8,15.0,0.0,0.0,0,1008.6,4,7,"",89
"2016-09-25 02:59:00",16.7,14.9,0.0,0.0,0,1008.6,2,3,"",89
"2016-09-25 03:00:00",16.7,15.1,0.0,0.0,0,1008.6,3,5,"",90
"2016-09-25 03:01:00",16.8,15.1,0.0,0.0,0,1008.6,2,5,"",90
"2016-09-25 03:02:00",16.8,15.1,0.0,0.0,0,1008.6,2,4,"",90
"2016-09-25 03:03:00",16.8,15.0,0.0,0.0,0,1008.6,2,3,"",89
"2016-09-25 03:04:00",16.8,15.0,0.0,0.0,0,1008.6,2,4,"",89
"2016-09-25 03:05:00",16.7,14.9,0.0,0.0,0,1008.6,1,2,"",89
"2016-09-25 03:06:00",16.7,15.1,0.0,0.0,0,1008.5,2,4,"",90
"2016-09-25 03:07:00",16.7,15.1,0.0,0.0,0,1008.6,0,1,"",90
"2016-09-25 03:08:00",16.6,15.0,0.0,0.0,0,1008.6,1,2,"",90
"2016-09-25 03:09:00",16.5,14.9,0.0,0.0,0,1008.6,1,1,"",90
"2016-09-25 03:10:00",16.4,14.8,0.0,0.0,0,1008.6,1,2,"",90
"2016-09-25 03:11:00",16.4,14.8,0.0,0.0,0,1008.5,2,3,"",90
"2016-09-25 03:12:00",16.3,14.8,0.0,0.0,0,1008.5,1,3,"",91
"2016-09-25 03:13:00",16.3,14.8,0.0,0.0,0,1008.5,1,2,"",91
"2016-09-25 03:14:00",16.3,14.8,0.0,0.0,0,1008.5,0,1,"",91
"2016-09-25 03:15:00",16.3,14.8,0.0,0.0,0,1008.5,1,2,"",91
"2016-09-25 03:16:00",16.3,14.8,0.0,0.0,0,1008.4,1,2,"",91
"2016-09-25 03:17:00",16.4,14.9,0.0,0.0,0,1008.4,1,2,"",91
"2016-09-25 03:18:00",16.4,14.9,0.0,0.0,0,1008.4,4,9,"",91
"2016-09-25 03:19:00",16.4,15.1,0.0,0.0,0,1008.4,3,4,"",92
"2016-09-25 03:20:00",16.5,15.0,0.0,0.0,0,1008.4,1,4,"",91
"2016-09-25 03:21:00",16.5,15.0,0.0,0.0,0,1008.4,2,3,"",91
"2016-09-25 03:22:00",16.5,15.0,0.0,0.0,0,1008.5,1,2,"",91
"2016-09-25 03:23:00",16.5,15.0,0.0,0.0,0,1008.5,2,4,"",91
"2016-09-25 03:24:00",16.5,15.0,0.0,0.0,0,1008.4,1,3,"",91
"2016-09-25 03:25:00",16.5,15.0,0.0,0.0,0,1008.4,1,3,"",91
"2016-09-25 03:26:00",16.5,15.0,0.0,0.0,0,1008.4,3,6,"",91
"2016-09-25 03:27:00",16.5,15.0,0.0,0.0,0,1008.4,1,2,"",91
"2016-09-25 03:28:00",16.5,15.0,0.0,0.0,0,1008.4,2,4,"",91
"2016-09-25 03:29:00",16.5,15.0,0.0,0.0,0,1008.4,1,2,"",91
"2016-09-25 03:30:00",16.5,15.0,0.0,0.0,0,1008.3,1,2,"",91
"2016-09-25 03:31:00",16.5,15.0,0.0,0.0,0,1008.4,1,2,"",91
"2016-09-25 03:32:00",16.6,15.1,0.0,0.0,0,1008.3,2,2,"",91
"2016-09-25 03:33:00",16.6,15.1,0.0,0.0,0,1008.3,2,4,"",91
"2016-09-25 03:34:00",16.6,15.1,0.0,0.0,0,1008.3,1,2,"",91
"2016-09-25 03:35:00",16.6,15.1,0.0,0.0,0,1008.3,3,6,"",91
"2016-09-25 03:36:00",16.6,15.1,0.0,0.0,0,1008.3,1,2,"",91
"2016-09-25 03:37:00",16.6,15.1,0.0,0.0,0,1008.3,5,12,"",91
"2016-09-25 03:38:00",16.7,15.2,0.0,0.0,0,1008.3,4,7,"",91
"2016-09-25 03:39:00",16.7,15.2,0.0,0.0,0,1008.3,1,3,"",91
"2016-09-25 03:40:00",16.8,15.3,0.0,0.0,0,1008.3,4,9,"",91
"2016-09-25 03:41:00",16.8,15.3,0.0,0.0,0,1008.3,2,4,"",91
"2016-09-25 03:42:00",16.8,15.3,0.0,0.0,0,1008.3,3,6,"",91
"2016-09-25 03:43:00",16.8,15.3,0.0,0.0,0,1008.3,1,3,"",91
"2016-09-25 03:44:00",16.8,15.3,0.0,0.0,0,1008.3,2,3,"",91
"2016-09-25 03:45:00",16.8,15.3,0.0,0.0,0,1008.2,2,4,"",91
"2016-09-25 03:46:00",16.8,15.3,0.0,0.0,0,1008.3,2,2,"",91
"2016-09-25 03:47:00",16.8,15.3,0.0,0.0,0,1008.3,3,7,"",91
"2016-09-25 03:48:00",16.8,15.3,0.0,0.0,0,1008.3,3,5,"",91
"2016-09-25 03:49:00",16.8,15.3,0.0,0.0,0,1008.3,2,3,"",91
"2016-09-25 03:50:00",16.8,15.3,0.0,0.0,0,1008.3,1,3,"",91
"2016-09-25 03:51:00",16.8,15.3,0.0,0.0,0,1008.3,2,5,"",91
"2016-09-25 03:52:00",16.8,15.3,0.0,0.0,0,1008.4,2,4,"",91
"2016-09-25 03:53:00",16.8,15.5,0.2,0.0,0,1008.3,3,7,"",92
"2016-09-25 03:54:00",16.8,15.5,0.2,0.0,0,1008.3,2,3,"",92
"2016-09-25 03:55:00",16.8,15.5,0.4,0.0,0,1008.2,1,3,"",92
"2016-09-25 03:56:00",16.8,15.5,0.4,0.0,0,1008.2,2,4,"",92
"2016-09-25 03:57:00",16.8,15.5,0.4,0.0,0,1008.2,2,5,"",92
"2016-09-25 03:58:00",16.8,15.7,0.4,0.0,0,1008.2,3,9,"",93
"2016-09-25 03:59:00",16.8,15.7,0.4,0.0,0,1008.2,2,4,"",93
"2016-09-25 04:00:00",16.7,15.6,0.4,0.0,0,1008.1,0,1,"",93
"2016-09-25 04:01:00",16.7,15.7,0.4,0.0,0,1008.2,0,2,"",94
"2016-09-25 04:02:00",16.7,15.7,0.4,0.0,0,1008.2,3,6,"",94
"2016-09-25 04:03:00",16.6,15.6,0.4,0.0,0,1008.2,1,2,"",94
"2016-09-25 04:04:00",16.6,15.6,0.4,0.0,0,1008.3,2,5,"",94
"2016-09-25 04:05:00",16.6,15.6,0.6,0.0,0,1008.2,3,7,"",94
"2016-09-25 04:06:00",16.5,15.5,0.6,0.0,0,1008.2,3,5,"",94
"2016-09-25 04:07:00",16.5,15.7,0.6,0.0,0,1008.2,2,4,"",95
"2016-09-25 04:08:00",16.5,15.7,0.6,0.0,0,1008.1,1,2,"",95
"2016-09-25 04:09:00",16.4,15.6,0.8,0.0,0,1008.2,2,4,"",95
"2016-09-25 04:10:00",16.4,15.6,0.8,0.0,0,1008.2,4,10,"",95
"2016-09-25 04:11:00",16.4,15.6,0.8,0.0,0,1008.1,2,2,"",95
"2016-09-25 04:12:00",16.4,15.6,0.8,0.0,0,1008.1,2,4,"",95
"2016-09-25 04:13:00",16.4,15.6,0.8,0.0,0,1008.1,2,4,"",95
"2016-09-25 04:14:00",16.4,15.8,0.8,0.0,0,1008.1,1,2,"",96
"2016-09-25 04:15:00",16.4,15.8,0.8,0.0,0,1008.1,2,5,"",96
"2016-09-25 04:16:00",16.4,15.8,0.8,0.0,0,1008.1,2,3,"",96
"2016-09-25 04:17:00",16.4,15.8,0.8,0.0,0,1008.1,1,2,"",96
"2016-09-25 04:18:00",16.4,15.8,0.8,0.0,0,1008.1,3,6,"",96
"2016-09-25 04:19:00",16.3,15.7,0.8,0.0,0,1008.2,1,2,"",96
"2016-09-25 04:20:00",16.3,15.7,0.8,0.0,0,1008.2,2,4,"",96
"2016-09-25 04:21:00",16.3,15.7,1.0,0.0,0,1008.2,2,4,"",96
"2016-09-25 04:22:00",16.3,15.7,1.0,0.0,0,1008.2,1,4,"",96
"2016-09-25 04:23:00",16.3,15.7,1.0,0.0,0,1008.2,1,2,"",96
"2016-09-25 04:24:00",16.3,15.8,1.0,0.0,0,1008.2,1,2,"",97
"2016-09-25 04:25:00",16.3,15.8,1.0,0.0,0,1008.2,2,4,"",97
"2016-09-25 04:26:00",16.3,15.8,1.0,0.0,0,1008.1,1,4,"",97
"2016-09-25 04:27:00",16.3,15.8,1.0,0.0,0,1008.2,3,5,"",97
"2016-09-25 04:28:00",16.3,15.8,1.0,0.0,0,1008.1,3,5,"",97
"2016-09-25 04:29:00",16.3,15.8,1.0,0.0,0,1008.1,4,7,"",97
"2016-09-25 04:30:00",16.3,15.8,1.0,0.0,0,1008.1,2,4,"",97
"2016-09-25 04:31:00",16.3,15.8,1.0,0.0,0,1008.1,0,1,"",97
"2016-09-25 04:32:00",16.3,15.8,1.0,0.0,0,1008.1,1,2,"",97
"2016-09-25 04:33:00",16.3,15.8,1.0,0.0,0,1008.1,2,2,"",97
"2016-09-25 04:34:00",16.3,15.8,1.0,0.0,0,1008.1,1,2,"",97
"2016-09-25 04:35:00",16.3,15.8,1.0,0.0,0,1008.2,1,3,"",97
"2016-09-25 04:36:00",16.3,15.8,1.0,0.0,0,1008.2,1,3,"",97
"2016-09-25 04:37:00",16.2,15.7,1.0,0.0,0,1008.2,1,3,"",97
"2016-09-25 04:38:00",16.2,15.7,1.0,0.0,0,1008.2,3,4,"",97
"2016-09-25 04:39:00",16.2,15.7,1.0,0.0,0,1008.2,1,2,"",97
"2016-09-25 04:40:00",16.2,15.7,1.0,0.0,0,1008.2,2,5,"",97
"2016-09-25 04:41:00",16.2,15.7,1.0,0.0,0,1008.2,3,5,"",97
"2016-09-25 04:42:00",16.3,15.8,1.2,0.0,0,1008.2,1,3,"",97
"2016-09-25 04:43:00",16.3,15.8,1.2,0.0,0,1008.3,1,2,"",97
"2016-09-25 04:44:00",16.3,16.0,1.4,0.0,0,1008.6,4,9,"",98
"2016-09-25 04:45:00",16.2,15.7,1.6,0.0,0,1008.6,10,15,"",97
"2016-09-25 04:46:00",16.1,15.6,1.8,0.0,0,1008.8,4,6,"",97
"2016-09-25 04:47:00",16.0,15.5,2.0,0.0,0,1008.7,3,4,"",97
"2016-09-25 04:48:00",15.9,15.4,2.0,0.0,0,1008.8,2,4,"",97
"2016-09-25 04:49:00",15.8,15.3,2.2,0.0,0,1008.8,2,5,"",97
"2016-09-25 04:50:00",15.8,15.3,2.2,0.0,0,1008.7,1,3,"",97
"2016-09-25 04:51:00",15.7,15.2,2.2,0.0,0,1008.7,3,5,"",97
"2016-09-25 04:52:00",15.6,15.1,2.2,0.0,0,1008.7,1,3,"",97
"2016-09-25 04:53:00",15.5,15.0,2.2,0.0,0,1008.8,1,2,"",97
"2016-09-25 04:54:00",15.4,14.8,2.2,0.0,0,1008.8,1,2,"",96
"2016-09-25 04:55:00",15.3,14.8,2.4,0.0,0,1008.8,1,2,"",97
"2016-09-25 04:56:00",15.3,14.8,2.4,0.0,0,1008.9,2,4,"",97
"2016-09-25 04:57:00",15.2,14.7,2.4,0.0,0,1008.9,1,3,"",97
"2016-09-25 04:58:00",15.1,14.6,2.4,0.0,0,1008.9,0,1,"",97
"2016-09-25 04:59:00",15.1,14.6,2.4,0.0,0,1008.9,0,1,"",97
"2016-09-25 05:00:00",15.0,14.5,2.4,0.0,0,1008.8,1,2,"",97
"2016-09-25 05:01:00",14.9,14.4,2.4,0.0,0,1008.8,0,1,"",97
"2016-09-25 05:02:00",14.9,14.4,2.4,0.0,0,1008.8,0,1,"",97
"2016-09-25 05:03:00",14.9,14.4,2.4,0.0,0,1008.9,1,1,"",97
"2016-09-25 05:04:00",14.8,14.3,2.4,0.0,0,1008.9,1,1,"",97
"2016-09-25 05:05:00",14.8,14.3,2.4,0.0,0,1009.0,2,2,"",97
"2016-09-25 05:06:00",14.8,14.3,2.4,0.0,0,1009.1,1,2,"",97
"2016-09-25 05:07:00",14.7,14.2,2.6,0.0,0,1009.1,1,2,"",97
"2016-09-25 05:08:00",14.7,14.2,2.6,0.0,0,1009.1,1,2,"",97
"2016-09-25 05:09:00",14.7,14.4,2.6,0.0,0,1009.0,1,2,"",98
"2016-09-25 05:10:00",14.7,14.4,2.6,0.0,0,1009.0,1,1,"",98
"2016-09-25 05:11:00",14.7,14.4,2.8,0.0,0,1009.0,1,2,"",98
"2016-09-25 05:12:00",14.6,14.3,2.8,0.0,0,1009.0,1,2,"",98
"2016-09-25 05:13:00",14.6,14.3,2.8,0.0,0,1008.9,1,3,"",98
"2016-09-25 05:14:00",14.6,14.3,2.8,0.0,0,1008.8,1,2,"",98
"2016-09-25 05:15:00",14.6,14.3,2.8,0.0,0,1008.7,1,2,"",98
"2016-09-25 05:16:00",14.5,14.2,2.8,0.0,0,1008.7,0,1,"",98
"2016-09-25 05:17:00",14.5,14.2,2.8,0.0,0,1008.7,1,2,"",98
"2016-09-25 05:18:00",14.5,14.2,3.0,0.0,0,1008.8,1,2,"",98
"2016-09-25 05:19:00",14.5,14.2,3.0,0.0,0,1008.8,0,1,"",98
"2016-09-25 05:20:00",14.4,14.1,3.0,0.0,0,1008.8,0,0,"",98
"2016-09-25 05:21:00",14.4,14.1,3.2,0.0,0,1008.7,0,0,"",98
"2016-09-25 05:22:00",14.4,14.1,3.2,0.0,0,1008.7,0,0,"",98
"2016-09-25 05:23:00",14.4,14.1,3.2,0.0,0,1008.6,0,1,"",98
"2016-09-25 05:24:00",14.4,14.1,3.4,0.0,0,1008.6,0,1,"",98
"2016-09-25 05:25:00",14.4,14.1,3.4,0.0,0,1008.6,1,2,"",98
"2016-09-25 05:26:00",14.4,14.1,3.4,0.0,0,1008.7,1,1,"",98
"2016-09-25 05:27:00",14.4,14.1,3.4,0.0,0,1008.7,0,1,"",98
"2016-09-25 05:28:00",14.4,14.1,3.6,0.0,0,1008.7,0,1,"",98
"2016-09-25 05:29:00",14.4,14.1,3.6,0.0,0,1008.7,0,0,"",98
"2016-09-25 05:30:00",14.4,14.1,3.6,0.0,0,1008.6,0,0,"",98
"2016-09-25 05:31:00",14.4,14.1,3.6,0.0,0,1008.6,0,1,"",98
"2016-09-25 05:32:00",14.4,14.1,3.6,0.0,0,1008.6,0,1,"",98
"2016-09-25 05:33:00",14.3,14.0,3.6,0.0,0,1008.6,0,2,"",98
"2016-09-25 05:34:00",14.3,14.0,3.6,0.0,0,1008.7,1,2,"",98
"2016-09-25 05:35:00",14.3,14.0,3.6,0.0,0,1008.8,1,2,"",98
"2016-09-25 05:36:00",14.3,14.0,3.6,0.0,0,1008.8,0,1,"",98
"2016-09-25 05:37:00",14.3,14.0,3.6,0.0,0,1008.8,0,1,"",98
"2016-09-25 05:38:00",14.3,14.0,3.6,0.0,0,1008.8,0,1,"",98
"2016-09-25 05:39:00",14.3,14.0,3.6,0.0,0,1008.8,0,0,"",98
"2016-09-25 05:40:00",14.3,14.0,3.6,0.0,0,1008.8,0,1,"",98
"2016-09-25 05:41:00",14.3,14.0,3.6,0.0,0,1008.8,0,1,"",98
"2016-09-25 05:42:00",14.3,14.0,3.6,0.0,0,1008.8,0,1,"",98
"2016-09-25 05:43:00",14.3,14.0,3.6,0.0,0,1008.8,0,1,"",98
"2016-09-25 05:44:00",14.3,14.0,3.6,0.0,0,1008.8,0,1,"",98
"2016-09-25 05:45:00",14.3,14.0,3.6,0.0,0,1008.9,0,1,"",98
"2016-09-25 05:46:00",14.2,13.9,3.6,0.0,0,1008.9,0,1,"",98
"2016-09-25 05:47:00",14.2,13.9,3.6,0.0,0,1008.9,0,1,"",98
"2016-09-25 05:48:00",14.2,13.9,3.6,0.0,0,1008.9,1,1,"",98
"2016-09-25 05:49:00",14.2,13.9,3.6,0.0,0,1009.0,0,1,"",98
"2016-09-25 05:50:00",14.2,14.0,3.6,0.0,0,1009.0,0,0,"",99
"2016-09-25 05:51:00",14.2,14.0,3.6,0.0,0,1009.0,0,1,"",99
"2016-09-25 05:52:00",14.2,14.0,3.6,0.0,0,1009.1,0,1,"",99
"2016-09-25 05:53:00",14.2,14.0,3.6,0.0,0,1009.1,0,1,"",99
"2016-09-25 05:54:00",14.2,14.0,3.6,0.0,0,1009.2,0,1,"",99
"2016-09-25 05:55:00",14.2,14.0,3.6,0.0,0,1009.2,1,1,"",99
"2016-09-25 05:56:00",14.2,14.0,3.6,0.0,0,1009.2,0,1,"",99
"2016-09-25 05:57:00",14.2,14.0,3.6,0.0,0,1009.3,1,2,"",99
"2016-09-25 05:58:00",14.2,14.0,3.6,0.0,0,1009.3,0,1,"",99
"2016-09-25 05:59:00",14.2,14.0,3.6,0.0,0,1009.3,1,2,"",99
"2016-09-25 06:00:00",14.2,14.0,3.6,0.0,0,1009.3,1,1,"",99
"2016-09-25 06:01:00",14.2,14.0,3.6,0.0,0,1009.3,0,1,"",99
"2016-09-25 06:02:00",14.2,14.0,3.6,0.0,0,1009.3,0,1,"",99
"2016-09-25 06:03:00",14.2,14.0,3.6,0.0,0,1009.4,0,1,"",99
"2016-09-25 06:04:00",14.2,14.0,3.6,0.0,0,1009.4,0,1,"",99
"2016-09-25 06:05:00",14.2,14.0,3.6,0.0,0,1009.4,0,1,"",99
"2016-09-25 06:06:00",14.1,13.9,3.6,0.0,0,1009.4,0,1,"",99
"2016-09-25 06:07:00",14.2,14.0,3.6,0.0,0,1009.4,0,1,"",99
"2016-09-25 06:08:00",14.1,13.9,3.6,0.0,0,1009.4,0,1,"",99
"2016-09-25 06:09:00",14.1,13.9,3.6,0.0,0,1009.4,2,2,"",99
"2016-09-25 06:10:00",14.1,13.9,3.6,0.0,0,1009.4,0,1,"",99
"2016-09-25 06:11:00",14.1,13.9,3.6,0.0,0,1009.4,0,1,"",99
"2016-09-25 06:12:00",14.1,13.9,3.6,0.0,0,1009.5,0,1,"",99
"2016-09-25 06:13:00",14.1,13.9,3.6,0.0,0,1009.5,0,0,"",99
"2016-09-25 06:14:00",14.1,13.9,3.6,0.0,0,1009.5,0,0,"",99
"2016-09-25 06:15:00",14.1,13.9,3.6,0.0,0,1009.4,0,0,"",99
"2016-09-25 06:16:00",14.1,13.9,3.6,0.0,0,1009.5,0,0,"",99
"2016-09-25 06:17:00",14.0,13.8,3.6,0.0,0,1009.5,0,0,"",99
"2016-09-25 06:18:00",14.1,13.9,3.6,0.0,0,1009.5,0,0,"",99
"2016-09-25 06:19:00",14.1,13.9,3.6,0.0,0,1009.5,0,0,"",99
"2016-09-25 06:20:00",14.1,13.9,3.6,0.0,0,1009.4,0,0,"",99
"2016-09-25 06:21:00",14.1,13.9,3.6,0.0,0,1009.4,0,0,"",99
"2016-09-25 06:22:00",14.1,13.9,3.6,0.0,0,1009.4,0,1,"",99
"2016-09-25 06:23:00",14.0,13.8,3.6,0.0,0,1009.5,1,1,"",99
"2016-09-25 06:24:00",14.0,13.8,3.6,0.0,0,1009.6,1,2,"",99
"2016-09-25 06:25:00",14.1,13.9,3.6,0.0,0,1009.7,2,2,"",99
"2016-09-25 06:26:00",14.1,13.9,3.6,0.0,0,1009.8,2,2,"",99
"2016-09-25 06:27:00",14.1,13.9,3.6,0.0,0,1009.9,1,2,"",99
"2016-09-25 06:28:00",14.1,13.9,3.6,0.0,0,1010.0,1,1,"",99
"2016-09-25 06:29:00",14.1,13.9,3.6,0.0,0,1010.0,1,2,"",99
"2016-09-25 06:30:00",14.1,13.9,3.6,0.0,0,1010.0,1,1,"",99
"2016-09-25 06:31:00",14.1,13.9,3.6,0.0,0,1010.0,1,1,"",99
"2016-09-25 06:32:00",14.1,13.9,3.6,0.0,0,1010.0,0,1,"",99
"2016-09-25 06:33:00",14.0,13.8,3.6,0.0,0,1010.0,0,0,"",99
"2016-09-25 06:34:00",14.1,13.9,3.6,0.0,0,1010.0,0,0,"",99
"2016-09-25 06:35:00",14.1,13.9,3.6,0.0,0,1010.1,0,0,"",99
"2016-09-25 06:36:00",14.1,13.9,3.6,0.0,0,1010.1,0,0,"",99
"2016-09-25 06:37:00",14.1,13.9,3.6,0.0,0,1010.1,0,0,"",99
"2016-09-25 06:38:00",14.1,13.9,3.6,0.0,0,1010.0,0,0,"",99
"2016-09-25 06:39:00",14.1,13.9,3.6,0.0,0,1010.1,0,0,"",99
"2016-09-25 06:40:00",14.1,13.9,3.6,0.0,0,1010.1,0,0,"",99
"2016-09-25 06:41:00",14.1,13.9,3.6,0.0,0,1010.1,0,0,"",99
"2016-09-25 06:42:00",14.1,13.9,3.6,0.0,0,1010.1,0,0,"",99
"2016-09-25 06:43:00",14.1,13.9,3.6,0.0,0,1010.1,0,0,"",99
"2016-09-25 06:44:00",14.1,13.9,3.6,0.0,0,1010.1,0,0,"",99